TimeCDT,TemperatureF,Dew PointF,Humidity,Sea Level PressureIn,VisibilityMPH,Wind Direction,Wind SpeedMPH,Gust SpeedMPH,PrecipitationIn,Events,Conditions,WindDirDegrees,DateUTC
12:04 AM,66.2,62.6,88,29.92,7.0,SSE,9.2,-,N/A,,Scattered Clouds,160,2013-04-11 05:04:00
12:25 AM,66.2,62.6,88,29.91,7.0,SSE,6.9,-,N/A,,Mostly Cloudy,160,2013-04-11 05:25:00
12:56 AM,66.9,63.0,87,29.86,7.0,SSE,8.1,-,N/A,,Mostly Cloudy,150,2013-04-11 05:56:00
1:56 AM,68.0,64.0,87,29.84,7.0,SSE,6.9,-,N/A,,Overcast,150,2013-04-11 06:56:00
2:56 AM,69.1,64.9,87,29.81,7.0,SE,5.8,-,N/A,,Overcast,130,2013-04-11 07:56:00
3:56 AM,71.1,66.0,84,29.80,8.0,SSE,10.4,-,N/A,,Overcast,150,2013-04-11 08:56:00
4:56 AM,71.1,66.9,87,29.78,8.0,SSE,10.4,-,N/A,,Overcast,150,2013-04-11 09:56:00
5:28 AM,71.6,66.2,83,29.82,9.0,SSE,10.4,-,N/A,,Overcast,150,2013-04-11 10:28:00
5:38 AM,71.6,66.2,83,29.82,9.0,SSE,11.5,-,N/A,,Overcast,150,2013-04-11 10:38:00
5:56 AM,72.0,66.9,84,29.78,9.0,SSE,13.8,-,N/A,,Overcast,150,2013-04-11 10:56:00
6:56 AM,73.0,68.0,84,29.79,8.0,SSE,15.0,23.0,N/A,,Overcast,160,2013-04-11 11:56:00
7:56 AM,73.0,68.0,84,29.81,9.0,SSE,16.1,-,N/A,,Overcast,150,2013-04-11 12:56:00
8:56 AM,75.0,68.0,79,29.81,9.0,SSE,17.3,-,N/A,,Overcast,150,2013-04-11 13:56:00
9:56 AM,77.0,68.0,74,29.81,10.0,South,16.1,24.2,N/A,,Overcast,170,2013-04-11 14:56:00
10:56 AM,79.0,68.0,69,29.81,10.0,South,20.7,26.5,N/A,,Overcast,170,2013-04-11 15:56:00
11:56 AM,80.1,68.0,67,29.79,10.0,South,23.0,31.1,N/A,,Overcast,170,2013-04-11 16:56:00
12:20 PM,78.8,69.8,74,29.82,7.0,South,23.0,32.2,0.00,Rain,Light Rain,170,2013-04-11 17:20:00
12:56 PM,80.1,70.0,71,29.75,9.0,South,17.3,27.6,0.00,,Overcast,170,2013-04-11 17:56:00
1:56 PM,80.1,69.1,69,29.71,9.0,South,16.1,35.7,N/A,,Overcast,170,2013-04-11 18:56:00
2:56 PM,80.1,69.1,69,29.70,9.0,South,21.9,32.2,N/A,,Overcast,180,2013-04-11 19:56:00
3:56 PM,78.1,69.1,74,29.66,6.0,SSE,21.9,33.4,0.00,Rain,Light Rain,160,2013-04-11 20:56:00
4:56 PM,75.9,69.1,79,29.61,8.0,SSE,26.5,40.3,0.00,,Overcast,160,2013-04-11 21:56:00
5:21 PM,75.2,69.8,83,29.65,6.0,SSE,29.9,36.8,0.00,Rain,Light Rain,160,2013-04-11 22:21:00
5:56 PM,75.0,70.0,84,29.57,6.0,SSE,19.6,32.2,0.01,Rain-Thunderstorm,Light Thunderstorms and Rain,160,2013-04-11 22:56:00
6:10 PM,75.2,69.8,83,29.62,6.0,South,26.5,39.1,0.01,Rain-Thunderstorm,Light Thunderstorms and Rain,170,2013-04-11 23:10:00
6:56 PM,73.9,71.1,91,29.59,1.0,SSW,17.3,38.0,0.29,Rain-Thunderstorm,Heavy Thunderstorms and Rain,210,2013-04-11 23:56:00
7:38 PM,71.6,71.6,100,29.67,2.0,SSW,31.1,59.8,1.52,Rain-Thunderstorm,Heavy Thunderstorms and Rain,210,2013-04-12 00:38:00
7:53 PM,69.8,-9999,N/A,29.62,2.0,South,10.4,32.2,1.65,Rain-Thunderstorm,Heavy Thunderstorms and Rain,180,2013-04-12 00:53:00
7:56 PM,69.1,64.9,87,29.60,3.0,South,15.0,-,1.65,Rain-Thunderstorm,Thunderstorms and Rain,190,2013-04-12 00:56:00
8:09 PM,69.8,64.4,83,29.66,6.0,South,16.1,-,0.02,Rain,Rain,180,2013-04-12 01:09:00
8:46 PM,68.0,66.2,94,29.68,6.0,South,11.5,-,0.02,,Overcast,170,2013-04-12 01:46:00
8:56 PM,69.1,66.0,90,29.65,9.0,South,13.8,-,0.02,,Mostly Cloudy,170,2013-04-12 01:56:00
9:16 PM,69.8,66.2,88,29.71,8.0,SSW,9.2,-,N/A,,Overcast,200,2013-04-12 02:16:00
9:56 PM,69.1,66.9,93,29.69,7.0,SW,8.1,-,N/A,,Overcast,220,2013-04-12 02:56:00
10:37 PM,69.8,66.2,88,29.74,9.0,WSW,4.6,-,N/A,,Overcast,250,2013-04-12 03:37:00
10:43 PM,69.8,66.2,88,29.74,10.0,WSW,4.6,-,N/A,,Mostly Cloudy,250,2013-04-12 03:43:00
10:56 PM,69.1,64.9,87,29.70,9.0,West,4.6,-,N/A,,Mostly Cloudy,260,2013-04-12 03:56:00
11:27 PM,66.2,64.4,94,29.75,10.0,WNW,8.1,-,N/A,,Mostly Cloudy,290,2013-04-12 04:27:00
11:56 PM,64.9,63.0,93,29.72,10.0,NW,9.2,-,N/A,,Overcast,310,2013-04-12 04:56:00